User: anonymous   Login
Location: Unspecified
(0.0000°N, 0.0000°E)
Time: 01:56:20
(UTC+02:00)
Language:

ARIANE 5 R/B - Orbit

View from above orbital plane
View from above orbital plane
View from above satellite
View from above satellite

Ground track
Ground track

The orbit data is extracted from the following two-line orbital elements,

1 28886U 05041C   15216.15397549 -.00000085  00000-0 -31046-3 0  9992
2 28886 007.9902 263.8154 7176004 308.1334 264.4240 02.24320297 80390
Epoch (UTC): 04 August 2015 03:41:43
Eccentricity: 0.7176004
inclination: 7.9902°
perigee height: 583 km
apogee height: 35961 km
right ascension of ascending node: 263.8154°
argument of perigee: 308.1334°
revolutions per day: 2.24320297
mean anomaly at epoch: 264.4240°
orbit number at epoch: 8039

The dashed part of the orbit path shows where the satellite is in the earth's shadow,  

DLR